Wind_Speed
25 25 24 25 24 20 17 12 12 15 20 22 12 10 13 12 10 8 15 16 13 13 12 7 10 14 17 24 28 29 30 31
31 25 29 30 28 19 20 17 12 19 21 27 27 25 20 16 9 13 20 23 13 5 2 3 5 12 10 14 21 27 37 38
33 28 34 33 29 20 18 21 17 23 27 26 26 30 23 20 13 18 24 26 17 16 11 3 6 7 9 26 28 29 34 33
35 35 33 35 33 24 23 28 18 18 24 23 27 28 28 29 19 15 23 25 18 15 10 6 10 14 9 25 34 35 37 41
35 36 38 38 35 28 29 26 20 20 23 26 31 30 29 27 26 24 26 29 18 19 15 19 20 22 24 25 26 31 33 35
36 40 41 38 34 33 30 32 24 24 26 29 32 30 27 28 27 28 32 25 22 24 24 22 26 20 14 18 17 22 25 30
42 41 40 35 35 36 32 35 26 27 26 22 21 28 35 37 29 34 30 30 29 28 27 30 26 17 24 24 27 28 29 28
43 44 40 32 33 35 37 37 32 32 30 28 26 32 33 37 38 33 36 32 33 37 33 31 31 23 32 29 28 33 33 31
45 50 44 41 38 37 36 38 36 33 33 34 34 35 35 36 38 41 34 38 42 31 34 34 29 24 28 33 30 32 34 33
47 51 46 45 41 37 37 35 37 36 33 34 35 30 28 32 36 37 39 36 36 35 35 31 28 28 37 35 32 39 41 42
46 53 47 46 44 40 36 31 33 32 33 32 30 28 29 32 34 31 33 28 27 22 22 31 32 34 37 32 43 44 43 48
41 48 48 46 45 39 30 26 30 29 28 32 34 29 31 37 35 31 20 13 12 20 24 23 36 40 40 45 46 46 51 54
37 42 45 46 42 35 31 28 31 28 30 31 30 28 35 41 37 31 21 26 28 31 26 32 38 46 43 44 51 55 61 64
35 36 40 44 42 37 37 37 33 34 34 35 34 34 41 40 41 37 35 34 38 28 39 45 52 53 47 53 55 57 66 70
30 32 41 44 40 38 39 39 38 35 35 35 37 37 37 44 47 43 45 45 46 55 49 54 61 56 62 58 68 69 77 89
32 36 42 46 42 36 37 34 33 35 20 24 28 29 28 23 33 42 45 48 49 54 60 53 50 47 56 65 72 75 88 90
39 39 43 49 45 36 35 35 32 26 27 32 34 34 31 37 43 45 52 52 53 57 56 46 50 61 63 67 76 83 95 73
41 40 39 38 41 40 38 34 23 29 35 31 28 24 24 44 51 60 49 51 52 54 56 61 65 59 68 76 80 83 77 68
42 44 48 46 50 45 42 35 28 28 32 37 32 34 41 50 56 52 51 51 56 54 55 60 70 79 75 73 85 80 64 67
Wind_Direction
249 250 248 249 251 252 256 245 251 251 249 247 192 205 196 190 215 245 260 270 290 317 284 291 273 255 261 270 262 243 252 259
253 246 247 248 249 244 238 230 214 232 241 233 227 241 253 230 236 264 268 266 268 309 319 55 67 110 49 355 303 274 262 262
256 243 239 246 248 249 243 247 224 221 232 236 241 247 249 238 224 248 248 245 224 230 290 79 54 107 179 219 252 280 283 273
248 247 245 242 243 235 229 236 215 225 238 232 242 245 254 254 256 234 218 216 222 247 265 332 355 353 285 238 257 270 275 274
248 246 242 240 241 241 238 243 206 208 218 225 238 247 255 267 277 241 235 218 225 230 244 322 350 334 322 313 307 299 290 283
261 247 244 241 237 235 235 242 223 208 221 231 242 251 254 260 255 249 241 263 262 264 269 293 325 323 315 316 327 338 320 293
257 255 252 244 237 234 229 236 224 215 219 226 236 239 243 243 246 244 255 258 268 281 290 291 298 300 299 310 314 332 335 328
255 256 254 249 242 241 236 234 229 223 218 215 212 223 236 251 248 249 252 258 271 279 289 290 290 301 299 303 320 314 327 329
251 248 248 246 243 235 238 239 238 229 222 223 225 229 238 249 254 251 259 250 253 276 282 285 286 295 302 309 321 323 322 325
250 246 245 244 243 239 234 237 240 238 233 233 237 236 243 249 250 259 263 272 284 291 288 282 285 290 299 304 316 317 319 314
251 245 239 237 235 233 233 232 240 237 234 230 238 244 258 255 249 251 264 281 291 291 295 296 286 281 293 301 307 307 311 312
249 243 236 227 228 229 227 228 236 234 232 227 227 243 254 251 250 245 247 243 256 254 275 289 301 288 288 302 306 305 309 307
244 243 234 221 221 221 217 223 234 224 224 233 233 245 253 251 243 244 246 233 254 232 232 270 287 290 294 296 305 308 304 300
239 240 236 220 216 220 220 208 222 229 226 230 236 238 247 253 247 249 254 254 251 248 278 279 294 288 282 291 296 299 302 300
228 231 224 220 217 221 224 218 213 228 234 238 244 248 258 255 253 255 257 253 261 253 272 278 290 281 286 294 294 292 302 306
216 219 220 221 211 216 226 223 219 226 225 243 245 254 263 255 254 263 265 261 258 261 274 288 287 296 295 298 297 295 305 308
212 218 218 217 206 211 203 214 230 232 242 251 266 261 264 271 272 278 265 269 265 270 282 283 284 283 284 288 304 302 307 307
211 213 209 211 204 204 208 208 236 254 257 257 283 273 270 251 267 277 277 272 274 275 273 277 285 286 282 298 301 305 308 309
211 214 212 211 201 204 214 224 253 267 271 271 276 277 259 266 262 265 266 272 277 274 278 278 289 303 303 301 306 311 310 307
Height
10901 10904 10904 10903 10904 10907 10909 10911 10913 10912 10914 10914 10920 10918 10919 10922 10922 10921 10921 10923 10923 10923 10922 10919 10921 10921 10924 10927 10925 10923 10923 10922
10892 10897 10896 10895 10898 10902 10903 10904 10906 10910 10908 10909 10911 10910 10914 10920 10920 10917 10916 10919 10921 10921 10919 10919 10920 10921 10921 10923 10918 10915 10914 10915
10883 10887 10886 10888 10892 10897 10897 10899 10902 10907 10905 10906 10906 10905 10907 10911 10917 10917 10915 10916 10917 10918 10918 10915 10915 10915 10915 10918 10914 10912 10909 10909
10876 10878 10880 10882 10884 10888 10890 10892 10897 10903 10903 10902 10899 10899 10899 10902 10908 10912 10910 10910 10910 10910 10911 10910 10909 10914 10918 10916 10911 10906 10902 10899
10873 10872 10873 10874 10878 10883 10887 10890 10894 10895 10898 10897 10894 10896 10896 10898 10901 10903 10906 10904 10904 10905 10907 10906 10902 10903 10901 10900 10897 10892 10888 10885
10866 10864 10866 10870 10873 10875 10880 10884 10890 10890 10892 10894 10893 10895 10896 10896 10897 10898 10899 10899 10900 10902 10902 10900 10898 10898 10896 10894 10891 10886 10881 10877
10852 10855 10858 10864 10867 10869 10872 10876 10881 10883 10887 10891 10895 10894 10890 10889 10891 10892 10891 10891 10891 10893 10893 10890 10889 10888 10890 10887 10883 10878 10874 10872
10844 10844 10851 10855 10858 10862 10865 10867 10871 10876 10880 10883 10883 10883 10882 10877 10882 10882 10883 10883 10883 10883 10883 10881 10879 10880 10881 10877 10874 10873 10868 10865
10833 10832 10838 10845 10848 10851 10857 10859 10863 10866 10870 10873 10874 10875 10874 10872 10872 10873 10875 10878 10878 10879 10878 10875 10873 10872 10872 10869 10863 10863 10859 10857
10819 10820 10828 10832 10839 10845 10846 10851 10856 10859 10862 10864 10865 10867 10867 10864 10862 10864 10868 10871 10872 10869 10867 10864 10864 10863 10862 10858 10854 10855 10852 10849
10805 10806 10815 10823 10827 10833 10837 10842 10846 10850 10851 10856 10858 10857 10854 10852 10855 10859 10862 10865 10861 10858 10857 10856 10855 10854 10853 10848 10846 10845 10841 10839
10791 10794 10803 10809 10817 10825 10831 10834 10836 10839 10843 10845 10847 10845 10844 10841 10845 10852 10856 10854 10852 10852 10854 10852 10848 10846 10842 10840 10837 10834 10831 10828
10782 10786 10793 10798 10810 10818 10824 10826 10827 10831 10833 10836 10839 10841 10837 10837 10839 10841 10843 10839 10840 10841 10842 10840 10838 10836 10833 10829 10827 10822 10819 10818
10774 10778 10787 10792 10800 10808 10810 10815 10818 10821 10823 10829 10832 10833 10829 10826 10825 10830 10835 10834 10834 10833 10831 10828 10826 10824 10822 10818 10815 10810 10808 10805
10766 10771 10776 10781 10791 10799 10801 10805 10810 10814 10818 10819 10821 10821 10818 10820 10823 10825 10826 10825 10823 10820 10819 10818 10815 10814 10810 10805 10801 10795 10792 10785
10756 10762 10767 10772 10777 10786 10794 10800 10804 10807 10811 10812 10813 10814 10812 10813 10815 10815 10813 10814 10812 10812 10808 10805 10803 10796 10794 10793 10787 10781 10772 10763
10751 10754 10757 10762 10772 10781 10788 10793 10795 10799 10800 10801 10800 10804 10804 10799 10798 10797 10798 10799 10800 10800 10796 10795 10794 10788 10782 10777 10771 10766 10757 10742
10747 10749 10754 10761 10769 10776 10779 10782 10785 10787 10790 10791 10790 10793 10788 10788 10786 10784 10785 10786 10787 10787 10787 10784 10781 10776 10773 10767 10758 10751 10736 10723
10742 10746 10749 10754 10761 10767 10768 10773 10774 10777 10779 10783 10784 10785 10783 10781 10778 10776 10774 10774 10774 10774 10774 10773 10770 10763 10753 10748 10741 10732 10717 10708